Location: Lafig�re
(44.4503°N, 4.0357°E)
Time: 17:03:03
(UTC+00:00)

S-56A Canister/Altair - Pass Details

Date: 26 January 2021
Orbit: 631 x 2501 km, 38.9° (Epoch: 04 March)

Event Time Altitude Azimuth Distance (km) Brightness Sun altitude
Rises 04:00:35 0° 262° (W) 2,930 - -33.5°
Reaches altitude 10° 04:02:55 10° 255° (WSW) 2,005 - -33.1°
Maximum altitude 04:07:06 42° 183° (S) 940 - -32.3°
Exits shadow 04:09:02 28° 133° (SE) 1,286 8.9 -32.0°
Drops below altitude 10° 04:11:54 10° 113° (ESE) 2,308 10.7 -31.5°
Sets 04:14:46 0° 107° (ESE) 3,439 11.9 -30.9°
